Weather History for KDNL - April, 2014

Change the Weather History Date:

Saturday, April 12, 2014

  Actual Average Record
Temperature  
Mean Temperature 71 °F -  
Max Temperature 84 °F 73 °F 86 °F (2001)
Min Temperature 57 °F 52 °F 41 °F (2012)
Cooling Degree Days 6    
Month to date cooling degree days 44  
Year to date cooling degree days 57  
Growing Degree Days 20 (Base 50)    
Moisture  
Dew Point 50 °F    
Average Humidity 52    
Maximum Humidity 80    
Minimum Humidity 28    
Precipitation  
Precipitation 0.00 in - - ()
Month to date precipitation 1.27  
Year to date precipitation 10.24  
Sea Level Pressure  
Sea Level Pressure 30.17 in    
Wind  
Wind Speed 4 mph (South)    
Max Wind Speed 12 mph    
Max Gust Speed 17 mph    
Visibility 10 miles    
Events      
Averages and records for this station are not official NWS values.
T = Trace of Precipitation, MM = Missing Value Source: NWS Daily Summary

Daily Weather History Graph

Daily Weather History Graph

Search for Another Location

Airport or City:

Trip Planner

Search our weather history database for the weather conditions in past years. The results will help you decide how hot, cold, wet, or windy it might be!

Date:

Astronomy

Apr. 12, 2014 Rise Set
Actual Time 7:01 AM EDT 7:56 PM EDT
Civil Twilight 6:36 AM EDT 8:22 PM EDT
Nautical Twilight 6:06 AM EDT 8:52 PM EDT
Astronomical Twilight 5:35 AM EDT 9:23 PM EDT
Moon 5:40 PM EDT (4/12) 5:19 AM EDT (4/12)
Length of Visible Light 13h 46m
Length of Day
12h 55m
Waxing Gibbous, 93% of the Moon is Illuminated
Apr 12
Waxing Gibbous
Apr 15
Full
Apr 22
Last Quarter
Apr 29
New
May 6
First Quarter

Hourly Weather History & Observations

Time (EDT) Temp. Dew Point Humidity Pressure Visibility Wind Dir Wind Speed Gust Speed Precip Events Conditions
12:53 AM 64.9 °F 50.0 °F 58% 30.18 in 10.0 mi Calm Calm - N/A   Clear
1:53 AM 64.0 °F 50.0 °F 60% 30.18 in 10.0 mi Variable 3.5 mph - N/A   Clear
2:53 AM 63.0 °F 50.0 °F 63% 30.17 in 10.0 mi Calm Calm - N/A   Clear
3:53 AM 57.9 °F 52.0 °F 81% 30.16 in 10.0 mi SSE 4.6 mph - N/A   Clear
4:53 AM 57.9 °F 51.1 °F 78% 30.16 in 10.0 mi Calm Calm - N/A   Clear
5:53 AM 57.0 °F 51.1 °F 81% 30.17 in 10.0 mi Calm Calm - N/A   Clear
6:53 AM 57.9 °F 51.1 °F 78% 30.19 in 10.0 mi Calm Calm - N/A   Clear
7:53 AM 59.0 °F 52.0 °F 78% 30.21 in 10.0 mi Calm Calm - N/A   Clear
8:53 AM 62.1 °F 53.1 °F 72% 30.22 in 10.0 mi SW 4.6 mph - N/A   Clear
9:53 AM 68.0 °F 54.0 °F 61% 30.23 in 10.0 mi WSW 4.6 mph - N/A   Clear
10:53 AM 73.9 °F 52.0 °F 46% 30.23 in 10.0 mi Calm Calm - N/A   Clear
11:53 AM 75.0 °F 48.9 °F 40% 30.23 in 10.0 mi Calm Calm - N/A   Clear
12:53 PM 78.1 °F 46.9 °F 33% 30.20 in 10.0 mi SW 4.6 mph - N/A   Clear
1:53 PM 80.1 °F 46.9 °F 31% 30.17 in 10.0 mi North - - N/A   Clear
2:53 PM 81.0 °F 46.0 °F 29% 30.15 in 10.0 mi Variable 4.6 mph - N/A   Clear
3:53 PM 82.0 °F 46.9 °F 29% 30.13 in 10.0 mi Variable 6.9 mph - N/A   Clear
4:53 PM 82.9 °F 46.0 °F 27% 30.11 in 10.0 mi SSW 6.9 mph - N/A   Clear
5:53 PM 82.9 °F 46.9 °F 28% 30.11 in 10.0 mi South 9.2 mph - N/A   Clear
6:53 PM 81.0 °F 50.0 °F 34% 30.10 in 10.0 mi SSW 8.1 mph - N/A   Clear
7:53 PM 77.0 °F 51.1 °F 40% 30.12 in 10.0 mi South 5.8 mph - N/A   Clear
8:53 PM 75.0 °F 52.0 °F 44% 30.13 in 10.0 mi South 4.6 mph - N/A   Clear
9:53 PM 73.9 °F 53.1 °F 48% 30.14 in 10.0 mi Calm Calm - N/A   Clear
10:53 PM 71.1 °F 54.0 °F 55% 30.16 in 10.0 mi ESE 8.1 mph - N/A   Partly Cloudy
11:53 PM 68.0 °F 54.0 °F 61% 30.17 in 10.0 mi SE 3.5 mph - N/A   Clear